Change the Weather History Date:

Saturday, September 28, 2013

  Actual Average Record
Temperature  
Mean Temperature 30 °F -  
Max Temperature 36 °F 30 °F 55 °F (1999)
Min Temperature 24 °F 16 °F 14 °F (1997)
Degree Days  
Heating Degree Days 35    
Moisture  
Dew Point 21 °F    
Average Humidity 63    
Maximum Humidity 80    
Minimum Humidity 29    
Precipitation  
Precipitation 0.00 in 0.02 in - ()
Sea Level Pressure  
Sea Level Pressure 29.81 in    
Wind  
Wind Speed 7 mph ()    
Max Wind Speed 10 mph    
Max Gust Speed -    
Visibility 6.2 miles    
Events      
Averages and records for this station are not official NWS values.
T = Trace of Precipitation, MM = Missing Value Source: Averaged Metar Reports

Daily Weather History Graph

Daily Weather History Graph

Search for Another Location

Airport or City:

Trip Planner

Search our weather history database for the weather conditions in past years. The results will help you decide how hot, cold, wet, or windy it might be!

Date:

Astronomy

Sep. 28, 2013 Rise Set
Actual Time 7:25 AM WGST 6:59 PM WGST
Civil Twilight 6:31 AM WGST 7:52 PM WGST
Nautical Twilight 5:27 AM WGST 8:56 PM WGST
Astronomical Twilight 4:13 AM WGST 10:08 PM WGST
Moon 11:57 PM WGST (9/28) 5:25 PM WGST (9/28)
Length of Visible Light 13h 20m
Length of Day
11h 34m
Last Quarter, 37% of the Moon is Illuminated
Sep 28
Last Quarter
Oct 4
New
Oct 11
First Quarter
Oct 18
Full
Oct 26
Last Quarter

Hourly Weather History & Observations

Time (WGST) Temp. Windchill Dew Point Humidity Pressure Visibility Wind Dir Wind Speed Gust Speed Precip Events Conditions
12:20 AM 32.0 °F 24.2 °F 24.8 °F 75% 29.86 in 6.2 mi ENE 9.2 mph - N/A   Overcast
12:50 AM 32.0 °F 25.6 °F 24.8 °F 75% 29.86 in 6.2 mi NE 6.9 mph - N/A   Overcast
1:00 AM 32 °F - 24 °F 62% 29.87 in 31 mi NE 6.9 mph - -   Mostly Cloudy
1:20 AM 32.0 °F 25.6 °F 24.8 °F 75% 29.86 in 6.2 mi NE 6.9 mph - N/A   Overcast
1:50 AM 32.0 °F 25.6 °F 24.8 °F 75% 29.86 in 6.2 mi NE 6.9 mph - N/A   Mostly Cloudy
2:20 AM 32.0 °F 24.2 °F 24.8 °F 75% 29.86 in 6.2 mi ENE 9.2 mph - N/A   Overcast
2:50 AM 32.0 °F 24.2 °F 24.8 °F 75% 29.86 in 6.2 mi ENE 9.2 mph - N/A   Overcast
3:20 AM 32.0 °F 24.2 °F 24.8 °F 75% 29.86 in 6.2 mi NE 9.2 mph - N/A   Overcast
3:50 AM 32.0 °F 24.8 °F 24.8 °F 75% 29.83 in 6.2 mi ENE 8.1 mph - N/A   Overcast
4:00 AM 32 °F - 24 °F 61% 29.86 in 31 mi ENE 8.1 mph - -   Overcast
4:20 AM 32.0 °F 24.8 °F 26.6 °F 80% 29.83 in 6.2 mi NE 8.1 mph - N/A   Overcast
4:50 AM 32.0 °F 24.2 °F 24.8 °F 75% 29.83 in 6.2 mi NE 9.2 mph - N/A   Overcast
5:20 AM 32.0 °F 24.2 °F 24.8 °F 75% 29.83 in 6.2 mi ENE 9.2 mph - N/A   Overcast
5:50 AM 32.0 °F 24.2 °F 24.8 °F 75% 29.83 in 6.2 mi ENE 9.2 mph - N/A   Overcast
6:20 AM 32.0 °F 24.8 °F 23.0 °F 69% 29.83 in 6.2 mi ENE 8.1 mph - N/A   Overcast
6:50 AM 32.0 °F 24.8 °F 23.0 °F 69% 29.83 in 6.2 mi NE 8.1 mph - N/A   Overcast
7:00 AM 32 °F - 22 °F 57% 29.86 in 31 mi NE 8.1 mph - -   Mostly Cloudy
7:20 AM 32.0 °F 24.8 °F 23.0 °F 69% 29.83 in 6.2 mi NE 8.1 mph - N/A   Overcast
7:50 AM 32.0 °F 24.8 °F 23.0 °F 69% 29.83 in 6.2 mi NE 8.1 mph - N/A   Overcast
8:20 AM 33.8 °F 27.0 °F 23.0 °F 65% 29.83 in 6.2 mi NE 8.1 mph - N/A   Overcast
8:50 AM 33.8 °F 27.7 °F 23.0 °F 65% 29.83 in 6.2 mi ENE 6.9 mph - N/A   Overcast
9:20 AM 33.8 °F 27.0 °F 23.0 °F 65% 29.83 in 6.2 mi NE 8.1 mph - N/A   Overcast
9:50 AM 33.8 °F 26.4 °F 23.0 °F 65% 29.83 in 6.2 mi ENE 9.2 mph - N/A   Overcast
10:00 AM 34 °F - 20 °F 42% 29.83 in 47 mi ENE 9.2 mph - -   Overcast
10:20 AM 33.8 °F 26.4 °F 21.2 °F 60% 29.80 in 6.2 mi ENE 9.2 mph - N/A   Overcast
10:50 AM 33.8 °F 27.0 °F 21.2 °F 60% 29.80 in 6.2 mi ENE 8.1 mph - N/A   Overcast
11:20 AM 35.6 °F 29.2 °F 21.2 °F 56% 29.80 in 6.2 mi East 8.1 mph - N/A   Overcast
11:50 AM 35.6 °F 29.2 °F 21.2 °F 56% 29.80 in 6.2 mi East 8.1 mph - N/A   Overcast
12:20 PM 35.6 °F 29.9 °F 21.2 °F 56% 29.80 in 6.2 mi East 6.9 mph - N/A   Overcast
12:50 PM 35.6 °F 29.9 °F 19.4 °F 52% 29.80 in 6.2 mi East 6.9 mph - N/A   Overcast
1:00 PM 36 °F - 18 °F 33% 29.81 in 28 mi East 6.9 mph - -   Overcast
1:20 PM 35.6 °F 29.9 °F 19.4 °F 52% 29.77 in 6.2 mi ESE 6.9 mph - N/A   Mostly Cloudy
1:50 PM 35.6 °F 29.9 °F 19.4 °F 52% 29.77 in 6.2 mi ESE 6.9 mph - N/A   Mostly Cloudy
2:20 PM 35.6 °F 29.9 °F 19.4 °F 52% 29.77 in 6.2 mi ESE 6.9 mph - N/A   Scattered Clouds
2:50 PM 35.6 °F 29.9 °F 19.4 °F 52% 29.77 in 6.2 mi ESE 6.9 mph - N/A   Partly Cloudy
3:50 PM 37.4 °F 31.4 °F 17.6 °F 45% 29.77 in 6.2 mi East 8.1 mph - N/A   Scattered Clouds
4:00 PM 36 °F - 15 °F 29% 29.80 in 25 mi East 8.1 mph - -  
5:50 PM 33.8 °F 25.8 °F 17.6 °F 52% 29.80 in 6.2 mi East 10.4 mph - N/A   Mostly Cloudy
6:20 PM 32.0 °F 23.6 °F 19.4 °F 60% 29.80 in 6.2 mi East 10.4 mph - N/A   Partly Cloudy
6:50 PM 30.2 °F 21.3 °F 19.4 °F 64% 29.80 in 6.2 mi ENE 10.4 mph - N/A   Unknown
7:00 PM 31 °F - 15 °F 39% 29.82 in 31 mi ENE 10.4 mph - -  
7:20 PM 30.2 °F 21.9 °F 17.6 °F 60% 29.80 in 6.2 mi ENE 9.2 mph - N/A   Unknown
7:50 PM 28.4 °F 20.4 °F 19.4 °F 69% 29.80 in 6.2 mi East 8.1 mph - N/A   Unknown
8:20 PM 28.4 °F 22.2 °F 17.6 °F 64% 29.80 in 6.2 mi ENE 5.8 mph - N/A   Unknown
8:50 PM 26.6 °F 22.6 °F 17.6 °F 69% 29.80 in 6.2 mi ENE 3.5 mph - N/A   Unknown
9:20 PM 26.6 °F 22.6 °F 17.6 °F 69% 29.80 in 6.2 mi ENE 3.5 mph - N/A   Unknown
9:50 PM 24.8 °F - 17.6 °F 74% 29.77 in 6.2 mi ENE 2.3 mph - N/A   Unknown
10:00 PM 26 °F - 16 °F 54% 29.80 in 28 mi East 2.3 mph - -   Clear
10:20 PM 24.8 °F 19.1 °F 17.6 °F 74% 29.77 in 6.2 mi East 4.6 mph - N/A   Unknown
10:50 PM 24.8 °F 20.5 °F 17.6 °F 74% 29.77 in 6.2 mi ENE 3.5 mph - N/A   Unknown
11:20 PM 24.8 °F 16.1 °F 17.6 °F 74% 29.77 in 6.2 mi East 8.1 mph - N/A   Unknown
11:50 PM 24.8 °F 16.9 °F 17.6 °F 74% 29.77 in 6.2 mi East 6.9 mph - N/A   Unknown